[[{"header":{"parameterUnit":"m.s-1","parameterCategory":1,"la1":30.2991,"la2":30.254,"lo1":-89.0895,"lo2":-89.0444,"dy":0.0017,"dx":0.0017,"nx":28,"ny":28,"refTime":"2024-06-19T03:00:00:Z","depth":0,"parameterNumber":2,"parameterNumberName":"U-component_of_WINDS"},"data":[0,0,0,0,0,0,0,0,0,0,0,0,0,0,0,0,0,0,0,0,0,0,0,0,0,0,0,0,0,0,0,0,0,0,0,0,0,0,0,0,0,0,0,0,0,0,0,0,0,0,0,0,0,0,0,0,0,0,-9.1819,-9.182,0,-9.1862,-9.1863,-9.1863,-9.1609,-9.1602,-9.1595,-9.1588,-9.1634,-9.1642,-9.1649,0,0,0,0,0,0,0,0,0,0,0,0,0,-9.1518,-9.1525,-9.1819,-9.182,-9.182,-9.1862,-9.1863,-9.1863,-9.1611,-9.1602,-9.1593,-9.1585,-9.1631,-9.1641,-9.165,0,0,0,0,0,0,0,0,0,0,0,0,0,-9.1614,-9.1528,-9.1819,-9.1699,-9.1689,-9.1862,-9.1863,-9.1863,-9.1613,-9.1602,-9.1591,-9.1581,-9.1628,-9.164,-9.1652,-9.1942,0,0,-9.1688,-9.1693,0,0,0,0,0,0,0,0,-9.1609,-9.1626,-9.1716,-9.1708,-9.1697,-9.1719,-9.1773,-9.189,-9.1615,-9.1642,-9.1588,-9.1575,-9.1671,-9.1679,-9.1711,-9.1944,-9.1946,-9.1689,-9.1696,-9.1701,-9.1705,0,0,0,0,0,0,0,-9.1603,-9.1622,-9.1836,-9.1718,-9.1706,-9.1643,-9.1645,-9.1794,-9.1717,-9.1639,-9.162,-9.1629,-9.1664,-9.17,-9.171,-9.1947,-9.1689,-9.1699,-9.1707,-9.1711,-9.2417,-9.2428,0,0,0,0,0,0,-9.1612,-9.1619,-9.1835,-9.1837,-9.1625,-9.1658,-9.1659,-9.1723,-9.1714,-9.1703,-9.1638,-9.1617,-9.1685,-9.1696,-9.1711,-9.2047,-9.1701,-9.1712,-9.1719,-9.2406,-9.242,-9.2432,0,0,0,0,0,0,-9.1607,-9.1634,-9.1833,-9.1723,-9.1744,-9.1674,-9.1748,-9.173,-9.1765,-9.1714,-9.1699,-9.1689,-9.1677,-9.1694,-9.1885,-9.2045,-9.1718,-9.1729,-9.2392,-9.241,-9.2426,-9.2725,0,0,0,0,0,0,-9.1599,-9.1633,-9.1743,-9.1727,-9.175,-9.2008,-9.1758,-9.1738,-9.1786,-9.1759,-9.1758,-9.1747,-9.167,-9.1869,-9.1897,-9.2056,-9.1738,-9.2377,-9.24,-9.2421,-9.27,-9.275,-9.2793,0,0,0,0,0,-9.1589,-9.1827,-9.175,-9.1778,-9.1886,-9.2018,-9.2031,-9.1936,-9.1801,-9.191,-9.1876,-9.1747,-9.2024,-9.1891,-9.1921,-9.2085,-9.2367,-9.2394,-9.2419,-9.2679,-9.274,-9.2792,0,0,0,0,0,0,-9.1864,-9.1823,-9.1737,-9.1977,-9.2003,-9.1975,-9.211,-9.2004,-9.207,-9.2041,-9.1921,-9.1923,-9.2135,-9.2129,-9.1982,-9.2364,-9.2171,-9.2205,-9.2359,-9.2417,-9.2462,-9.2458,-9.1748,0,0,0,0,0,-9.1953,-9.2063,-9.2021,-9.2236,-9.2253,-9.2181,-9.2234,-9.2159,-9.2181,-9.2191,-9.2171,-9.2198,-9.229,-9.2354,-9.2436,-9.2699,-9.2693,-9.2827,-9.2873,-9.2911,-9.2941,-9.3076,-9.3133,-9.2518,-9.2518,-9.2517,0,0,-9.2137,-9.2127,-9.2204,-9.2291,-9.2302,-9.2418,-9.2191,-9.2324,-9.2409,-9.2211,-9.2389,-9.2377,-9.2399,-9.2627,-9.2726,-9.2628,-9.311,-9.2945,-9.2976,-9.2984,-9.3109,-9.3167,-9.3219,-9.2536,-9.2532,-9.253,0,0,-9.2529,-9.2536,-9.2713,-9.2729,-9.2748,-9.2698,-9.2742,-9.273,-9.2713,-9.289,-9.2744,-9.2843,-9.3006,-9.3026,-9.3058,-9.3459,-9.3341,-9.3489,-9.373,-9.3863,-9.3912,-9.3954,-9.4094,-9.4146,-9.3519,-9.352,-9.3521,0,-9.2755,-9.2924,-9.2819,-9.2961,-9.3002,-9.2828,-9.3006,-9.3027,-9.3074,-9.3106,-9.2996,-9.3194,-9.3198,-9.3426,-9.3523,-9.3557,-9.36,-9.3487,-9.3913,-9.3955,-9.3993,-9.4124,-9.4178,-9.3537,-9.3536,-9.3534,-9.3532,0,-9.3199,-9.3318,-9.346,-9.3507,-9.3565,-9.3725,-9.3643,-9.3715,-9.3635,-9.3596,-9.3778,-9.3776,-9.3853,-9.3902,-9.3827,-9.412,-9.4058,-9.3934,-9.3737,-9.4071,-9.4192,-9.4242,-9.3563,-9.3556,-9.3551,-9.3547,0,0,-9.3764,-9.3751,-9.3804,-9.3822,-9.3831,-9.3921,-9.4073,-9.4148,-9.421,-9.4248,-9.4371,-9.4512,-9.4396,-9.4432,-9.4357,-9.4475,-9.4789,-9.4335,-9.4333,-9.4416,-9.5108,-9.5199,-9.526,-9.4712,-9.4722,-9.4729,-9.5105,0,-9.4145,-9.4402,-9.4312,-9.4574,-9.4682,-9.4518,-9.465,-9.467,-9.4638,-9.4725,-9.4689,-9.479,-9.4631,-9.4651,-9.4761,-9.4728,-9.4925,-9.47,-9.4823,-9.4829,-9.4819,-9.5324,-9.5421,-9.5776,-9.5152,-9.516,-9.5166,0,-9.4624,-9.4679,-9.4952,-9.494,-9.4982,-9.5102,-9.5161,-9.5247,-9.5266,-9.5234,-9.5275,-9.5175,-9.5322,-9.5129,-9.5329,-9.5177,-9.5223,-9.5215,-9.5226,-9.5231,-9.5015,-9.5339,-9.5887,-9.5939,-9.5241,-9.5235,-9.5229,0,-9.5004,-9.5148,-9.5328,-9.535,-9.5341,-9.5429,-9.543,-9.5437,-9.5487,-9.5541,-9.5571,-9.5642,-9.568,-9.5737,-9.5658,-9.5525,-9.5869,-9.567,-9.5845,-9.5847,-9.5922,-9.5917,-9.6482,-9.5959,-9.5958,-9.5957,-9.5956,0,-9.5436,-9.5609,-9.5498,-9.561,-9.5798,-9.5692,-9.5881,-9.5864,-9.5872,-9.5976,-9.5841,-9.5942,-9.5833,-9.5923,-9.5863,-9.6036,-9.6056,-9.6033,-9.6014,-9.6043,-9.6045,-9.6068,-9.604,-9.5971,-9.5968,-9.5965,-9.5963,0,-9.5891,-9.5825,-9.601,-9.5987,-9.5985,-9.6125,-9.6104,-9.6205,-9.6164,-9.6298,-9.6323,-9.6259,-9.6358,-9.6285,-9.6385,-9.6344,-9.6571,-9.652,-9.6564,-9.6549,-9.6726,-9.6709,-9.7322,-9.7395,-9.683,-9.6836,-9.684,0,-9.617,-9.6298,-9.6288,-9.6348,-9.6357,-9.6455,-9.6505,-9.6407,-9.6464,-9.6494,-9.6592,-9.668,-9.6744,-9.6911,-9.6873,-9.6948,-9.6894,-9.7104,-9.6905,-9.6929,-9.6893,-9.6884,-9.6895,-9.7143,-9.715,-9.7156,-9.716,0,-9.667,-9.663,-9.6706,-9.6773,-9.6835,-9.6883,-9.6919,-9.6976,-9.6876,-9.6948,-9.7047,-9.7097,-9.7198,-9.7286,-9.7346,-9.7346,-9.7237,-9.7224,-9.7267,-9.7296,-9.7315,-9.7303,-9.667,-9.7209,-9.7204,-9.72,-9.7198,-9.7196,-9.7041,-9.7147,-9.7155,-9.7245,-9.7262,-9.7299,-9.7392,-9.7362,-9.7443,-9.7516,-9.7454,-9.7572,-9.7586,-9.7656,-9.767,-9.7761,-9.7675,-9.7739,-9.7755,-9.7771,-9.7794,-9.7304,-9.7773,-9.7771,-9.777,-9.7768,-9.7767,0,-9.753,-9.7528,-9.7611,-9.7665,-9.7736,-9.7627,-9.7662,-9.7727,-9.7833,-9.7855,-9.7921,-9.8035,-9.8119,-9.8089,-9.8163,-9.8242,-9.8193,-9.8264,-9.8255,-9.8257,-9.7869,-9.7822,-9.8302,-9.8302,-9.8302,-9.8302,-9.8302,-9.8302,-9.7792,-9.7963,-9.7925,-9.8104,-9.8099,-9.8213,-9.8242,-9.8275,-9.8292,-9.8424,-9.8493,-9.8472,-9.8473,-9.8546,-9.8619,-9.8607,-9.8639,-9.8729,-9.8699,-9.8337,-9.8284,-9.8234,-9.8188,-9.8737,-9.8738,-9.9077,-9.9081,-9.9083]},{"header":{"parameterUnit":"m.s-1","parameterCategory":1,"la1":30.2991,"la2":30.254,"lo1":-89.0895,"lo2":-89.0444,"dy":0.0017,"dx":0.0017,"nx":28,"ny":28,"refTime":"2024-06-19T03:00:00:Z","depth":0,"parameterNumber":3,"parameterNumberName":"V-component_of_WINDS"},"data":[0,0,0,0,0,0,0,0,0,0,0,0,0,0,0,0,0,0,0,0,0,0,0,0,0,0,0,0,0,0,0,0,0,0,0,0,0,0,0,0,0,0,0,0,0,0,0,0,0,0,0,0,0,0,0,0,0,0,-0.7462,-0.7463,0,-0.759,-0.7592,-0.7593,-0.7703,-0.7705,-0.7706,-0.7707,-0.7836,-0.7838,-0.784,0,0,0,0,0,0,0,0,0,0,0,0,0,-0.7309,-0.7311,-0.7462,-0.7464,-0.7465,-0.759,-0.7592,-0.7594,-0.7703,-0.7705,-0.7706,-0.7708,-0.7835,-0.7838,-0.7841,0,0,0,0,0,0,0,0,0,0,0,0,0,-0.74,-0.7312,-0.7462,-0.7535,-0.7543,-0.759,-0.7592,-0.7594,-0.7703,-0.7705,-0.7707,-0.7708,-0.7834,-0.7838,-0.7841,-0.7825,0,0,-0.7851,-0.7853,0,0,0,0,0,0,0,0,-0.7395,-0.7405,-0.7523,-0.753,-0.7539,-0.7633,-0.7585,-0.7671,-0.7702,-0.7642,-0.7707,-0.7709,-0.7767,-0.7776,-0.7796,-0.7831,-0.7836,-0.7852,-0.7854,-0.7855,-0.7856,0,0,0,0,0,0,0,-0.7388,-0.7401,-0.7513,-0.7524,-0.7534,-0.756,-0.7575,-0.7602,-0.7692,-0.7647,-0.7656,-0.7669,-0.7771,-0.7792,-0.7799,-0.7838,-0.7852,-0.7855,-0.7857,-0.7858,-0.7866,-0.7864,0,0,0,0,0,0,-0.7371,-0.7395,-0.7509,-0.7517,-0.747,-0.7562,-0.7579,-0.7601,-0.7692,-0.7708,-0.7668,-0.7674,-0.7785,-0.7795,-0.7804,-0.7791,-0.7855,-0.7858,-0.786,-0.7867,-0.7865,-0.7863,0,0,0,0,0,0,-0.7367,-0.738,-0.7504,-0.7458,-0.7476,-0.7562,-0.7586,-0.7602,-0.7623,-0.7708,-0.7724,-0.7672,-0.7787,-0.78,-0.7819,-0.7797,-0.786,-0.7863,-0.787,-0.7867,-0.7864,-0.7764,0,0,0,0,0,0,-0.7362,-0.7378,-0.7374,-0.7457,-0.7478,-0.7516,-0.7585,-0.7603,-0.7629,-0.7639,-0.7717,-0.7731,-0.779,-0.7813,-0.7822,-0.7803,-0.7866,-0.7872,-0.7868,-0.7865,-0.7769,-0.7758,-0.7748,0,0,0,0,0,-0.7357,-0.734,-0.7373,-0.7386,-0.7474,-0.7515,-0.7527,-0.7595,-0.7627,-0.7622,-0.7677,-0.7729,-0.7798,-0.7814,-0.7825,-0.7807,-0.7874,-0.7869,-0.7865,-0.7774,-0.776,-0.7748,0,0,0,0,0,0,-0.7251,-0.7352,-0.739,-0.74,-0.7448,-0.7533,-0.753,-0.7578,-0.7618,-0.7625,-0.7707,-0.7724,-0.7733,-0.7772,-0.7789,-0.7795,-0.7843,-0.784,-0.777,-0.7757,-0.7746,-0.7737,-0.7869,0,0,0,0,0,-0.7229,-0.7255,-0.7342,-0.7342,-0.7364,-0.7443,-0.7463,-0.7512,-0.7564,-0.7585,-0.7641,-0.7689,-0.7722,-0.7742,-0.7777,-0.7776,-0.7794,-0.7768,-0.7757,-0.7748,-0.7745,-0.7746,-0.7736,-0.7849,-0.7849,-0.785,0,0,-0.7184,-0.7243,-0.7254,-0.7322,-0.7366,-0.7389,-0.7459,-0.7482,-0.75,-0.7588,-0.761,-0.7652,-0.7712,-0.772,-0.7727,-0.7753,-0.7718,-0.7743,-0.7735,-0.7737,-0.7741,-0.773,-0.772,-0.7847,-0.7847,-0.7848,0,0,-0.7114,-0.7161,-0.7166,-0.7208,-0.7272,-0.7324,-0.7325,-0.7403,-0.7435,-0.7458,-0.7525,-0.7547,-0.7602,-0.7641,-0.7668,-0.7611,-0.766,-0.762,-0.7564,-0.7564,-0.7555,-0.7548,-0.7526,-0.7518,-0.7617,-0.7616,-0.7616,0,-0.7049,-0.7089,-0.7162,-0.7181,-0.7208,-0.729,-0.7295,-0.7332,-0.7403,-0.742,-0.7448,-0.7518,-0.7564,-0.7583,-0.7569,-0.7588,-0.7591,-0.7611,-0.7551,-0.7544,-0.7538,-0.7518,-0.751,-0.7611,-0.7612,-0.7612,-0.7613,0,-0.7005,-0.7031,-0.7028,-0.7095,-0.7123,-0.7134,-0.7209,-0.7227,-0.7273,-0.7321,-0.7343,-0.7401,-0.7448,-0.7456,-0.7501,-0.7481,-0.7495,-0.7535,-0.7585,-0.752,-0.7503,-0.7497,-0.7604,-0.7605,-0.7607,-0.7608,0,0,-0.6873,-0.6981,-0.6978,-0.7009,-0.7086,-0.7107,-0.7121,-0.7168,-0.7182,-0.7228,-0.7242,-0.7286,-0.7324,-0.7354,-0.7404,-0.7404,-0.7354,-0.7445,-0.7448,-0.7425,-0.7334,-0.7302,-0.7292,-0.7387,-0.7386,-0.7385,-0.7329,0,-0.6814,-0.6846,-0.6912,-0.6922,-0.6947,-0.7024,-0.7037,-0.7084,-0.7129,-0.7156,-0.7206,-0.7236,-0.7284,-0.7303,-0.7307,-0.7359,-0.7337,-0.7364,-0.7399,-0.7399,-0.7381,-0.7284,-0.7251,-0.7194,-0.7323,-0.7321,-0.7321,0,-0.675,-0.6792,-0.6805,-0.6879,-0.6891,-0.6901,-0.6949,-0.6974,-0.7029,-0.7062,-0.7095,-0.715,-0.7168,-0.7213,-0.7239,-0.7256,-0.7274,-0.7302,-0.7301,-0.7307,-0.7356,-0.7285,-0.7178,-0.7169,-0.7311,-0.7312,-0.7313,0,-0.6651,-0.671,-0.6726,-0.675,-0.6837,-0.6842,-0.6878,-0.6935,-0.6959,-0.7,-0.7016,-0.7059,-0.7082,-0.7113,-0.7177,-0.7204,-0.7195,-0.7246,-0.7221,-0.722,-0.7216,-0.7215,-0.7109,-0.7228,-0.7228,-0.7228,-0.7228,0,-0.6578,-0.6582,-0.6682,-0.6691,-0.6698,-0.6774,-0.6778,-0.6821,-0.6871,-0.6889,-0.6958,-0.6974,-0.7058,-0.7082,-0.7133,-0.7145,-0.7155,-0.7182,-0.7195,-0.7175,-0.7171,-0.7188,-0.7193,-0.7226,-0.7227,-0.7227,-0.7227,0,-0.6468,-0.6535,-0.6557,-0.6637,-0.6657,-0.6658,-0.6727,-0.6738,-0.6787,-0.6809,-0.6819,-0.6896,-0.6928,-0.6996,-0.7046,-0.708,-0.708,-0.7104,-0.7062,-0.707,-0.7041,-0.7043,-0.6942,-0.6932,-0.7057,-0.7056,-0.7055,0,-0.6417,-0.6422,-0.6503,-0.652,-0.6554,-0.6581,-0.6606,-0.668,-0.6702,-0.6765,-0.6768,-0.6806,-0.684,-0.6888,-0.6948,-0.6987,-0.7012,-0.6973,-0.7018,-0.6997,-0.701,-0.7008,-0.7009,-0.6963,-0.6961,-0.696,-0.6959,0,-0.6319,-0.6351,-0.6385,-0.6428,-0.6456,-0.6494,-0.6536,-0.6546,-0.6629,-0.6651,-0.6685,-0.6712,-0.6763,-0.68,-0.6847,-0.6884,-0.6934,-0.6944,-0.6941,-0.692,-0.6895,-0.6907,-0.7034,-0.6946,-0.6948,-0.6948,-0.6949,-0.695,-0.6236,-0.6244,-0.6302,-0.6336,-0.6375,-0.6412,-0.6426,-0.6478,-0.6508,-0.6556,-0.6598,-0.6628,-0.6682,-0.6751,-0.6784,-0.6808,-0.6833,-0.6828,-0.6826,-0.6823,-0.6814,-0.6891,-0.6817,-0.6817,-0.6818,-0.6818,-0.6818,0,-0.6141,-0.6182,-0.6212,-0.6269,-0.6295,-0.6341,-0.639,-0.6408,-0.6434,-0.648,-0.6512,-0.6551,-0.6586,-0.6648,-0.6689,-0.6696,-0.672,-0.6704,-0.6703,-0.6711,-0.679,-0.6789,-0.6683,-0.6683,-0.6683,-0.6683,-0.6683,-0.6683,-0.6094,-0.6109,-0.6148,-0.6183,-0.6225,-0.6255,-0.6278,-0.6312,-0.635,-0.639,-0.6419,-0.646,-0.6512,-0.6557,-0.6591,-0.6608,-0.6619,-0.6595,-0.662,-0.6693,-0.6705,-0.6717,-0.6717,-0.6597,-0.6597,-0.6538,-0.6538,-0.6537]}]]